Regional Weather Roundup
Issued by NWS

Home | Current Version | Previous Version | Text Only | Print | Product List | Glossary Off
Versions: 1 2 3 4 5 6 7 8 9 10 11 12 13 14 15 16 17 18 19 20 21 22 23 24 25 26 27 28 29 30 31 32 33 34 35 36 37 38 39 40 41 42 43 44 45 46 47 48 49 50

000
ASUS44 KMEG 261610
RWRTN
TENNESSEE HOURLY STATE WEATHER ROUNDUP
NATIONAL WEATHER SERVICE MEMPHIS TN
1000 AM CST SUN FEB 26 2017

TNZ002-004-019-021-049-052-054-088>092-261700-
WEST TENNESSEE

CITY           SKY/WX    TMP DP  RH WIND       PRES   REMARKS
MEMPHIS INTL   MOSUNNY   48  20  32 SE12      30.20R
NWS MEMPHIS      N/A     48 N/A N/A MISG        N/A
JACKSON        SUNNY     45  21  38 SE8G16    30.22S
UNION CITY     SUNNY     45  14  29 S6G15     30.20S
PARIS          SUNNY     39  21  48 SE12      30.22S WCI  32
HUNTINGDON     SUNNY     43  23  45 SE9G15    30.21R
$$

TNZ008-025-027-028-033-062-065-066-261700-
NORTH MIDDLE TENNESSEE

CITY           SKY/WX    TMP DP  RH WIND       PRES   REMARKS
NASHVILLE      MOSUNNY   44  19  36 S13       30.27R
PORTLAND       SUNNY     41  16  36 S6        30.24R
CLARKSVILLE    SUNNY     41  20  43 SE6       30.24R
SMYRNA         SUNNY     43  20  39 VRB5      30.28R
COOKEVILLE     SUNNY     39  19  45 CALM      30.24R
GALLATIN       SUNNY     41  19  42 VRB6      30.29R
CROSSVILLE     SUNNY     37  15  40 NE6       30.22R WCI  32
$$

TNZ061-075-076-078-094-096-097-261700-
SOUTH MIDDLE TENNESSEE

CITY           SKY/WX    TMP DP  RH WIND       PRES   REMARKS
FAYETTEVILLE   SUNNY     43  19  39 VRB5      30.26R
TULLAHOMA      SUNNY     39  16  38 SE6       30.26R WCI  35
WINCHESTER     SUNNY     41  19  42 SE6       30.26R
MCMINNVILLE    SUNNY     39  18  41 E8        30.25R WCI  34
COLUMBIA       SUNNY     43  25  49 S7        30.23F
SHELBYVILLE    SUNNY     43  21  42 E6        30.27R
$$

TNZ017-018-042-046-047-261700-
NORTHEAST TENNESSEE

CITY           SKY/WX    TMP DP  RH WIND       PRES   REMARKS
TRI CITIES     SUNNY     37  17  44 VRB7      30.24R WCI  32
ELIZABETHTON   SUNNY     37  18  44 W10       30.23S WCI  30
$$

TNZ012-013-036-069-073-074-261700-
CENTRAL EAST TENNESSEE

CITY           SKY/WX    TMP DP  RH WIND       PRES   REMARKS
KNOXVILLE      SUNNY     40  15  36 VRB5      30.26S
OAK RIDGE      SUNNY     40  16  37 CALM      30.28S
GATLINBURG     SUNNY     39  16  38 N6        30.25F WCI  35
MORRISTOWN     SUNNY     37  16  41 CALM      30.24F
JACKSBORO      SUNNY     39  18  41 VRB5      30.28R
$$

TNZ083-085-099-261700-
SOUTHEAST TENNESSEE

CITY           SKY/WX    TMP DP  RH WIND       PRES   REMARKS
CHATTANOOGA    SUNNY     43  18  36 NE10G16   30.28S
$$

SKY/WX REPORTED AS FAIR MEANS FEW OR NO CLOUDS BELOW
12 THOUSAND FEET.





USA.gov is the U.S. government's official web portal to all federal, state and local government web resources and services.